Location: Unspecified
(0.0000°N, 0.0000°E)
Time: 22:49:59
(UTC+01:00)

JASON 3 - Pass Details

Date: 02 October 2020
Orbit: 1332 x 1343 km, 66.0° (Epoch: 27 October)

Event Time Altitude Azimuth Distance (km) Brightness Sun altitude
Rises 21:34:50 0° 358° (N) 4,343 ? -26.4°
Reaches altitude 10° 21:38:01 10° 7° (N) 3,372 ? -27.2°
Enters shadow 21:40:40 20° 21° (NNE) 2,660 ? -27.8°
